Location: Unspecified
(35.6961°N, 0.0000°E)
Time: 10:30:33
(UTC+00:00)

S-56A Canister/Altair - Pass Details

Date: 29 May 2019
Orbit: 633 x 2499 km, 38.9° (Epoch: 15 June)

Event Time Altitude Azimuth Distance (km) Brightness Sun altitude
Rises 22:29:25 0° 228° (SW) 2,907 - -28.9°
Reaches altitude 10° 22:31:39 10° 222° (SW) 2,026 - -29.1°
Maximum altitude 22:35:56 44° 149° (SSE) 972 - -29.5°
Drops below altitude 10° 22:41:14 10° 78° (ENE) 2,511 - -29.8°
Exits shadow 22:42:43 - 75° (ENE) 3,085 10.6 -29.9°
Sets 22:44:18 0° 73° (ENE) 3,698 11.0 -30.1°
